Regional Weather Roundup
Issued by NWS

Home | Current Version | Previous Version | Text Only | Print | Product List | Glossary Off
Versions: 1 2 3 4 5 6 7 8 9 10 11 12 13 14 15 16 17 18 19 20 21 22 23 24 25 26 27 28 29 30 31 32 33 34 35 36 37 38 39 40 41 42 43 44 45 46 47 48 49 50

000
ASUS45 KBOU 230507
RWRCO

WEATHER ROUNDUP FOR COLORADO
NATIONAL WEATHER SERVICE DENVER/BOULDER CO
1000 PM MST SAT NOV 22 2014

NOTE: "FAIR" INDICATES FEW OR NO CLOUDS BELOW 12000 FEET WITH NO
SIGNIFICANT WEATHER AND/OR OBSTRUCTIONS TO VISIBILITY.

COZ001>005-013-030-031-230600-
...NORTHWEST COLORADO...

CITY           SKY/WX    TMP DP  RH WIND       PRES   REMARKS
CRAIG          LGT SNOW  33  31  92 SW7       29.78F FOG     WCI  27
HAYDEN         CLOUDY    30  28  93 W9        29.77S VSB 1   WCI  22
MEEKER         LGT SNOW  34  31  88 NW8       29.77S FOG     WCI  27
MOUNT WERNER   NOT AVBL
STEAMBOAT SPGS CLOUDY    31  30  95 W5        29.75R WCI  27
WALDEN         CLOUDY    30  27  86 CALM      29.71R
$$

COZ006>008-011-230600-
...WEST CENTRAL VALLEYS...

CITY           SKY/WX    TMP DP  RH WIND       PRES   REMARKS
GRAND JUNCTION CLOUDY    33  33 100 N3        29.78F
MONTROSE       CLOUDY    38  29  70 W3        29.80S
EAGLE          CLOUDY    34  32  93 SE3       29.77F
RIFLE          CLOUDY    34  33  96 E5        29.79S WCI  30
DELTA          CLOUDY    42  35  74 NE3       29.79S
NUCLA          CLOUDY    43  23  45 N3        29.83S
$$

COZ017>023-064>068-230600-
...SOUTHWEST COLORADO...

CITY           SKY/WX    TMP DP  RH WIND       PRES   REMARKS
DURANGO        CLOUDY    36  22  56 N6        29.87S
CORTEZ         CLOUDY    38  35  89 E8        29.86S
PAGOSA SPRINGS CLOUDY    34  25  70 CALM      29.89S
TELLURIDE      CLOUDY    35  25  66 SW7G22    29.87F WCI  29
WOLF CREEK PAS SNOW      18  18 100 SW32G43   29.87F VSB 1/2 WCI  -3
$$

COZ009-010-012-014-032>034-037-058>063-230600-
...CENTRAL COLORADO...

CITY           SKY/WX    TMP DP  RH WIND       PRES   REMARKS
ASPEN          LGT SNOW  32  30  92 N5        29.75R FOG     WCI  27
BUENA VISTA    CLOUDY    31  27  84 W3        29.74R
COPPER MTN     SNOW      27  19  74 W16G25    29.77S VSB 1/2 WCI  14
BERTHOUD PASS  SNOW      19  14  79 W33G48    29.72R VSB 1/2 WCI   0
COTTONWOOD PAS LGT SNOW  32  27  80 NW12G25   29.74R WCI  23
GUNNISON       CLOUDY    28  25  86 CALM      29.83F
KREMMLING      LGT SNOW  34  32  93 W9        29.73R WCI  26
LEADVILLE      LGT SNOW  25  24  96 W5        29.75R VSB 3/4 WCI  19
MONARCH PASS   CLOUDY    19  18  93 W43G51    29.89F WCI  -2
SALIDA         CLOUDY    35  32  89 W8        29.82R WCI  28
SUNLIGHT       CLOUDY    28  27  93 SW5       29.77F FOG     WCI  23
WILKERSON PASS PTCLDY    21  19  93 SW12G28   29.71F WCI   9
$$

COZ069>075-230600-
...SAN LUIS VALLEY/SANGRE DE CRISTO MOUNTAINS...

CITY           SKY/WX    TMP DP  RH WIND       PRES   REMARKS
ALAMOSA        CLEAR     26  15  63 SE5       29.77F WCI  20
LA VETA PASS   PTCLDY    27  14  59 S12G33    29.76F WCI  16
SAGUACHE       MOCLDY    30  25  80 NW9       29.79S WCI  22
$$

COZ035-036-038>040-230600-
...NORTHERN COLORADO FRONT RANGE...

CITY           SKY/WX    TMP DP  RH WIND       PRES   REMARKS
DENVER INTL AP MOCLDY    48  25  40 NW13      29.55F
DMNS CITY PARK   N/A     42  25  49 SE3       29.55F
AURORA         MOCLDY    41  25  52 SE7       29.57F
FRONT RANGE AP MOCLDY    46  28  49 W12       29.56F
ERIE MUNI ARPT PTCLDY    37  26  63 E5        29.54F
BOULDER MUN AP PTCLDY    48  25  40 W8        29.54S
CENTENNIAL     MOCLDY    42  25  50 SE12      29.57F
BROOMFIELD     MOCLDY    50  23  34 NW14      29.55F
FORT COLLINS   MOCLDY    43  27  52 CALM      29.56S
LONGMONT       MOCLDY    53  25  34 W15G21    29.55F
$$

COZ041-046-047-076>085-087-088-230600-
...PIKES PEAK/PALMER DIVIDE AND SOUTHERN FOOTHILLS...

CITY           SKY/WX    TMP DP  RH WIND       PRES   REMARKS
COLO. SPRINGS  MOCLDY    50  23  34 NW16      29.60F
A. F. ACADEMY  MOCLDY    45  23  41 NW13      29.62F
ELLICOTT       NOT AVBL
FALCON         NOT AVBL
FORT CARSON    MOCLDY    47  21  35 SW5       29.59F
LIMON          CLOUDY    41  21  44 N9        29.57S
MONUMENT HILL  CLOUDY    37  21  52 SW6       29.61F
TRINIDAD       PTCLDY    37  21  52 NW9       29.63F
$$

COZ042>045-048>051-090-091-230600-
...NORTHEAST COLORADO...

CITY           SKY/WX    TMP DP  RH WIND       PRES   REMARKS
GREELEY ARPT   MOCLDY    34  21  60 CALM      29.55F
AKRON          CLOUDY    40  17  39 NW5       29.54F
BURLINGTON     CLOUDY    41  18  39 NW7       29.51F
WRAY           CLOUDY    47  15  28 E6        29.50F
STERLING       CLOUDY    36  23  60 SW5       29.53F
HOLYOKE        CLOUDY    41  19  42 CALM      29.52R
FORT MORGAN    CLOUDY    39  19  43 NW7       29.53F
$$

COZ086-089-092>099-230600-
...SOUTHEAST COLORADO...

CITY           SKY/WX    TMP DP  RH WIND       PRES   REMARKS
PUEBLO         PTCLDY    53  26  35 NW17      29.57F
LA JUNTA       CLOUDY    49  28  44 W12       29.53S
LAMAR          CLOUDY    54  26  34 W16       29.48S
SPRINGFIELD      N/A     46  23  40 W8        29.54F
$$


USA.gov is the U.S. government's official web portal to all federal, state and local government web resources and services.